Regional Weather Roundup
Issued by NWS

Home | Current Version | Previous Version | Graphics & Text | Print | Product List | Glossary On
Versions: 1 2 3 4 5 6 7 8 9 10 11 12 13 14 15 16 17 18 19 20 21 22 23 24 25 26 27 28 29 30 31 32 33 34 35 36 37 38 39 40 41 42 43 44 45 46 47 48 49 50
000
ASUS45 KBOI 290810
RWRID
WEATHER ROUNDUP FOR IDAHO
NATIONAL WEATHER SERVICE BOISE ID
200 AM MDT TUE JUL 29 2014

NOTE: "FAIR" INDICATES FEW OR NO CLOUDS BELOW 12000 FEET
WITH NO SIGNIFICANT WEATHER AND/OR OBSTRUCTIONS TO VISIBILITY

IDZ012-014-290900-
SOUTHWEST IDAHO


CITY           SKY/WX    TMP DP  RH WIND       PRES   REMARKS
BOISE          MOCLDY    81  49  32 SE6       30.05R
CALDWELL       MOCLDY    72  52  49 CALM      30.05S
MOUNTAIN HOME  PTCLDY    79  51  36 E13       30.07R
$$

IDZ016-017-290900-
SOUTHCENTRAL IDAHO


CITY           SKY/WX    TMP DP  RH WIND       PRES   REMARKS
BURLEY         CLOUDY    69  56  62 CALM      30.16F
JEROME         MOCLDY    68  57  68 NE13      30.16F
TWIN FALLS     MOCLDY    70  54  56 SE6       30.15F
$$

IDZ019>023-290900-
SOUTHEAST IDAHO


CITY           SKY/WX    TMP DP  RH WIND       PRES   REMARKS
IDAHO FALLS    CLOUDY    66  55  67 NW3       30.25F
POCATELLO      MOCLDY    63  60  90 NE6       30.23F
REXBURG        CLOUDY    66  53  63 CALM      30.26F
$$

IDZ006-010-011-018-031-032-290900-
CENTRAL IDAHO MOUNTAINS


CITY           SKY/WX    TMP DP  RH WIND       PRES   REMARKS
MCCALL         CLOUDY    65  50  58 CALM      30.22F
HAILEY         MOCLDY    64  48  55 CALM      30.31S
STANLEY          N/A     48  45  89 SE5       30.39S
SALMON         CLEAR     59  46  63 CALM      30.19F
CHALLIS        CLEAR     61  46  57 SE6       30.27R
$$

IDZ002-004-006-007-026-290900-
NORTHERN IDAHO


CITY           SKY/WX    TMP DP  RH WIND       PRES   REMARKS
LEWISTON       PTCLDY    80  40  23 S3        29.99S
LOWELL           N/A     66  59  78 N3        30.05R
COEUR D`ALENE  CLEAR     64  54  68 SE5       30.06S
MULLAN PASS    CLEAR     70  37  29 SE6       30.33S
$$


USA.gov is the U.S. government's official web portal to all federal, state and local government web resources and services.